Tracking 28081 objects as of 26-Sep-2023
HD Live streaming from Space Station
objects crossing your sky now

ONEWEB-0624

Track ONEWEB-0624 now!
10-day predictions
ONEWEB-0624 is classified as:


NORAD ID: 55165
Int'l Code: 2023-004AB
Perigee: 1,173.4 km
Apogee: 1,175.8 km
Inclination: 87.9 °
Period: 108.7 minutes
Semi major axis: 7545 km
RCS: Unknown
Launch date: January 10, 2023
Source: United Kingdom (UK)
Launch site: AIR FORCE WESTERN TEST RANGE (AFWTR)
Your satellite tracking list
Your tracking list is empty




NASA's NSSDC Master Catalog

Two Line Element Set (TLE):
1 55165U 23004AB  23268.79301780 -.00144882  00000-0 -34246+0 0  9994
2 55165  87.9480 188.4763 0001564 116.5773 243.5523 13.24526087 37487
Source of the keplerian elements: AFSPC